Location: Hamayl? Da??
(36.7028°N, 30.1716°E)
Time: 11:18:15
(UTC+00:00)

Lacrosse 5 - Pass Details

Date: 04 August 2024
Orbit: 714 x 724 km, 57.0° (Epoch: 09 March)

Event Time Altitude Azimuth Distance (km) Brightness Sun altitude
Rises 17:23:34 0° 329° (NNW) 3,119 6.2 -4.7°
Reaches altitude 10° 17:26:53 10° 351° (N) 2,198 4.9 -5.3°
Maximum altitude 17:29:57 16° 29° (NNE) 1,824 4.0 -5.9°
Drops below altitude 10° 17:33:02 10° 67° (ENE) 2,196 4.0 -6.4°
Enters shadow 17:35:19 - 83° (E) 2,804 4.4 -6.8°
